TimeEST,TemperatureF,Dew PointF,Humidity,Sea Level PressureIn,VisibilityMPH,Wind Direction,Wind SpeedMPH,Gust SpeedMPH,PrecipitationIn,Events,Conditions,WindDirDegrees,DateUTC
12:51 AM,12.0,9.0,88,29.67,1.8,Calm,Calm,-,0.00,Snow,Light Snow,0,2013-12-16 05:51:00
12:59 AM,12.2,8.6,85,29.58,2.0,Calm,Calm,-,0.00,Snow,Light Snow,0,2013-12-16 05:59:00
1:20 AM,10.4,8.6,92,29.59,3.0,WSW,4.6,-,0.00,Snow,Light Snow,250,2013-12-16 06:20:00
1:51 AM,10.0,6.1,84,29.70,2.5,Variable,4.6,-,0.00,Snow,Light Snow,0,2013-12-16 06:51:00
2:05 AM,10.4,5.0,79,29.63,4.0,WSW,5.8,16.1,0.00,Snow,Light Snow,250,2013-12-16 07:05:00
2:21 AM,8.6,5.0,85,29.64,2.0,Variable,5.8,-,0.00,Snow,Light Snow,0,2013-12-16 07:21:00
2:31 AM,8.6,5.0,85,29.65,1.8,West,6.9,-,0.00,Snow,Light Snow,280,2013-12-16 07:31:00
2:38 AM,8.6,3.2,79,29.65,2.0,WNW,5.8,-,0.00,Snow,Light Snow,290,2013-12-16 07:38:00
2:51 AM,8.1,3.9,83,29.76,1.8,WNW,4.6,-,0.00,Snow,Light Snow,300,2013-12-16 07:51:00
3:16 AM,6.8,3.2,85,29.68,2.5,Variable,3.5,-,0.00,,Overcast,0,2013-12-16 08:16:00
3:23 AM,6.8,1.4,79,29.68,4.0,Variable,4.6,-,0.00,,Overcast,0,2013-12-16 08:23:00
3:51 AM,3.9,1.0,88,29.79,4.0,Variable,3.5,-,0.00,,Overcast,0,2013-12-16 08:51:00
4:44 AM,3.2,-0.4,85,29.72,10.0,West,4.6,-,N/A,,Overcast,260,2013-12-16 09:44:00
4:51 AM,3.0,-0.9,84,29.83,9.0,WSW,6.9,-,N/A,,Overcast,250,2013-12-16 09:51:00
5:49 AM,-0.4,-4.0,85,29.77,8.0,WSW,6.9,-,N/A,,Partly Cloudy,250,2013-12-16 10:49:00
5:51 AM,-0.0,-4.0,83,29.88,8.0,WSW,6.9,-,N/A,,Scattered Clouds,240,2013-12-16 10:51:00
6:51 AM,-2.9,-6.0,87,29.90,9.0,WSW,5.8,-,N/A,,Clear,250,2013-12-16 11:51:00
7:13 AM,-2.2,-7.6,78,29.79,10.0,WSW,3.5,-,N/A,,Scattered Clouds,250,2013-12-16 12:13:00
7:23 AM,-4.0,-7.6,85,29.79,10.0,SW,4.6,-,N/A,,Mostly Cloudy,230,2013-12-16 12:23:00
7:30 AM,-4.0,-7.6,85,29.79,10.0,SW,4.6,-,N/A,,Scattered Clouds,230,2013-12-16 12:30:00
7:51 AM,-4.0,-7.1,87,29.91,10.0,WSW,5.8,-,N/A,,Clear,240,2013-12-16 12:51:00
8:51 AM,-2.0,-6.0,83,29.94,5.0,Variable,5.8,-,N/A,,Mostly Cloudy,0,2013-12-16 13:51:00
9:51 AM,-0.9,-5.1,83,29.96,8.0,SW,8.1,-,N/A,,Mostly Cloudy,220,2013-12-16 14:51:00
10:12 AM,1.4,-4.0,78,29.84,10.0,WSW,10.4,-,N/A,,Scattered Clouds,240,2013-12-16 15:12:00
10:51 AM,3.9,-2.9,73,29.96,10.0,Variable,5.8,16.1,N/A,,Partly Cloudy,0,2013-12-16 15:51:00
11:16 AM,5.0,-2.2,72,29.85,10.0,WSW,10.4,17.3,N/A,,Mostly Cloudy,240,2013-12-16 16:16:00
11:34 AM,5.0,-4.0,66,29.85,8.0,West,12.7,20.7,N/A,,Scattered Clouds,270,2013-12-16 16:34:00
11:51 AM,3.9,-4.0,70,29.96,10.0,WSW,13.8,18.4,N/A,,Mostly Cloudy,240,2013-12-16 16:51:00
12:51 PM,5.0,-4.0,66,29.96,10.0,WSW,11.5,-,N/A,,Clear,250,2013-12-16 17:51:00
1:51 PM,5.0,-5.1,63,29.97,10.0,Variable,6.9,-,N/A,,Clear,0,2013-12-16 18:51:00
2:51 PM,3.9,-7.1,60,30.01,10.0,West,12.7,20.7,N/A,,Clear,260,2013-12-16 19:51:00
3:51 PM,3.0,-7.1,63,30.04,10.0,West,6.9,17.3,N/A,,Clear,260,2013-12-16 20:51:00
4:51 PM,-0.0,-8.0,69,30.08,10.0,Calm,Calm,-,N/A,,Clear,0,2013-12-16 21:51:00
5:51 PM,-2.0,-8.0,76,30.12,10.0,Calm,Calm,-,N/A,,Clear,0,2013-12-16 22:51:00
6:51 PM,-9.0,-13.0,83,30.15,10.0,Calm,Calm,-,N/A,,Clear,0,2013-12-16 23:51:00
7:51 PM,-9.9,-15.0,78,30.19,10.0,Calm,Calm,-,N/A,,Clear,0,2013-12-17 00:51:00
8:51 PM,-14.1,-17.0,87,30.20,10.0,Calm,Calm,-,N/A,,Clear,0,2013-12-17 01:51:00
9:51 PM,-17.0,-22.0,78,30.21,10.0,Calm,Calm,-,N/A,,Clear,0,2013-12-17 02:51:00
10:51 PM,-20.9,-25.1,81,30.22,10.0,Calm,Calm,-,N/A,,Clear,0,2013-12-17 03:51:00
11:51 PM,-20.9,-26.0,77,30.22,10.0,Calm,Calm,-,N/A,,Clear,0,2013-12-17 04:51:00